Location: Unspecified
(0.0000°N, 0.0000°E)
Time: 09:27:45
(UTC+00:00)

A-11 Canister half - Pass Details

Date: 16 June 2024
Orbit: 1515 x 1684 km, 47.2° (Epoch: 23 July)

Event Time Altitude Azimuth Distance (km) Brightness Sun altitude
Rises 02:04:48 0° 351° (N) 4,703 11.8 -51.9°
Reaches altitude 10° 02:09:46 10° 13° (NNE) 3,695 11.3 -50.9°
Maximum altitude 02:14:38 15° 45° (NE) 3,280 11.1 -50.0°
Drops below altitude 10° 02:19:28 10° 78° (ENE) 3,670 11.4 -49.0°
Sets 02:24:18 0° 99° (E) 4,652 11.9 -48.1°
